Stations météo

réclame
Mon MeteoGroup
Goteborg, Suède (2513): Température de l'air & dewpoint: 18.10.2018 07:00:00 - 24.10.2018 07:00:00 (CEST)Goteborg, Suède (2513): Vitesse du vent & gusts: 18.10.2018 07:00:00 - 24.10.2018 07:00:00 (CEST)Goteborg, Suède (2513): Direction du vent: 18.10.2018 07:00:00 - 24.10.2018 07:00:00 (CEST)Goteborg, Suède (2513): reduced air pressure: 18.10.2018 07:00:00 - 24.10.2018 07:00:00 (CEST)Goteborg, Suède (2513): visibility: 18.10.2018 07:00:00 - 24.10.2018 07:00:00 (CEST)Goteborg, Suède (2513): Quantités de précipitations: 18.10.2018 07:00:00 - 24.10.2018 07:00:00 (CEST)
Date & Time tt [°C] td [°C] ff [km/h] ff [knt] fx [km/h] fx [knt] dd ppp [hPa] vv [km] rr [mm]
24.10.2018 07:00:00 3,0 -1,0 0 0 6 3 N 1008,8 50 0,0
24.10.2018 06:00:00 2,4 -0,2 0 0 7 4 N 1008,2 50 0,0
24.10.2018 05:00:00 2,6 1,1 4 2 8 4 N 1007,2 50 0,0
24.10.2018 04:00:00 2,5 0,4 0 0 6 3 N 1006,0 40 0,0
24.10.2018 03:00:00 3,1 0,0 0 0 5 3 N 1005,2 50 0,0
24.10.2018 02:00:00 3,9 -0,1 0 0 5 3 N 1004,7 50 0,0
24.10.2018 01:00:00 4,9 -0,1 3 2 13 7 NNE 1004,3 50 0,0
24.10.2018 00:00:00 5,7 0,5 5 3 18 10 WNW 1003,6 50 0,0
23.10.2018 23:00:00 6,6 0,7 7 4 26 14 NNW 1002,7 50 0,0
23.10.2018 22:00:00 7,6 0,3 13 7 33 18 NNW 1001,5 42 0,0
23.10.2018 21:00:00 8,3 1,4 13 7 51 28 N 1000,2 50 0,0
23.10.2018 20:00:00 11,2 -0,3 23 12 48 26 NW 998,0 50 0,0
23.10.2018 19:00:00 11,8 0,8 26 14 46 25 NW 996,8 45 0,0
23.10.2018 18:00:00 11,7 3,0 15 8 34 18 NW 996,3 44 0,0
23.10.2018 17:00:00 12,1 2,5 14 8 50 27 WNW 996,2 45 0,0
23.10.2018 16:00:00 13,0 2,2 19 10 54 29 WNW 996,0 30 0,0
23.10.2018 15:00:00 13,4 5,1 27 14 53 29 WNW 995,9 14 0,0
23.10.2018 14:00:00 13,2 5,4 27 15 53 28 WNW 995,9 27 0,0
23.10.2018 13:00:00 13,0 5,4 29 16 49 26 WNW 996,2 21 0,0
23.10.2018 12:00:00 12,7 6,3 26 14 57 31 WNW 996,2 21 0,0
23.10.2018 11:00:00 12,5 6,1 30 16 57 31 WNW 995,9 25 0,0
23.10.2018 10:00:00 12,0 6,3 25 13 57 31 W 995,9 21 0,2
23.10.2018 09:00:00 11,4 7,3 23 12 47 25 WNW 996,6 13 1,5
23.10.2018 08:00:00 11,3 7,6 24 13 57 31 W 996,7 6 1,9
23.10.2018 07:00:00 12,0 7,7 29 16 56 31 W 996,9 11 0,0
23.10.2018 06:00:00 12,0 7,9 36 19 69 38 W 997,5 11 0,0
23.10.2018 05:00:00 11,9 8,0 36 20 71 38 W 998,5 10 0,0
23.10.2018 04:00:00 11,6 7,7 32 17 73 40 WSW 1000,3 10 0,2
23.10.2018 03:00:00 10,7 7,9 34 18 64 34 WSW 1003,2 4,8 0,3
23.10.2018 02:00:00 9,8 7,2 26 14 54 29 SW 1005,9 7 0,8
23.10.2018 01:00:00 9,4 6,3 24 13 53 29 SW 1008,9 9 1,3
23.10.2018 00:00:00 9,0 6,1 22 12 51 28 SW 1011,6 7 1,3
22.10.2018 23:00:00 9,6 5,2 27 15 50 27 SW 1014,0 10 0,5
22.10.2018 22:00:00 10,4 4,5 23 12 49 26 WSW 1016,1 16 0,4
22.10.2018 21:00:00 10,4 4,1 23 12 46 25 WSW 1017,7 14 0,0
22.10.2018 20:00:00 10,5 3,8 27 14 45 24 W 1018,4 15 0,0
22.10.2018 19:00:00 10,5 3,1 21 11 44 24 W 1019,3 17 0,0
22.10.2018 18:00:00 10,5 3,3 17 9 39 21 W 1019,6 19 0,0
22.10.2018 17:00:00 10,7 3,0 24 13 46 25 W 1020,2 18 0,0
22.10.2018 16:00:00 11,2 3,0 26 14 53 29 W 1020,5 18 0,0
22.10.2018 15:00:00 11,4 3,2 27 15 47 26 W 1021,3 16 0,0
22.10.2018 14:00:00 11,3 3,3 23 12 56 30 W 1020,5 16 0,0
22.10.2018 13:00:00 11,3 2,8 24 13 53 28 W 1021,0 13 0,0
22.10.2018 12:00:00 11,1 1,9 27 15 62 33 W 1020,7 15 0,0
22.10.2018 11:00:00 10,8 2,1 30 16 58 31 W 1020,6 14 0,0
22.10.2018 10:00:00 10,4 2,5 20 11 45 25 W 1020,2 18 0,0
22.10.2018 09:00:00 10,2 1,8 20 11 39 21 WNW 1019,4 20 0,0
22.10.2018 08:00:00 10,0 3,1 21 12 46 25 W 1018,9 27 0,0
22.10.2018 07:00:00 10,5 3,5 26 14 45 25 W 1018,2 20 0,0
22.10.2018 06:00:00 10,7 3,9 21 11 41 22 W 1017,9 26 0,0
22.10.2018 05:00:00 10,6 4,5 16 9 38 21 W 1017,5 25 0,0
22.10.2018 04:00:00 11,2 5,7 19 10 39 21 W 1017,6 23 0,0
22.10.2018 03:00:00 11,3 6,2 23 13 40 21 W 1017,4 34 0,0
22.10.2018 02:00:00 11,5 7,4 20 11 44 24 W 1017,2 33 0,0
22.10.2018 01:00:00 12,3 8,6 24 13 48 26 W 1016,6 22 0,0
22.10.2018 00:00:00 13,1 9,5 25 14 45 25 WSW 1016,8 47 0,0
21.10.2018 23:00:00 13,3 11,2 20 11 42 23 SW 1016,0 20 0,1
21.10.2018 22:00:00 13,5 11,6 17 9 42 23 SW 1016,1 2,7 0,2
21.10.2018 21:00:00 14,1 11,4 16 9 36 20 SSW 1016,3 14 0,0
21.10.2018 20:00:00 13,9 11,4 15 8 37 20 SSW 1016,9 15 0,0
21.10.2018 19:00:00 13,9 11,6 18 10 35 19 SSW 1017,4 16 0,0
21.10.2018 18:00:00 13,6 11,8 16 9 31 17 SSW 1017,6 11 0,0
21.10.2018 17:00:00 13,6 11,6 16 8 33 18 SSW 1018,3 18 0,0
21.10.2018 16:00:00 13,1 10,8 17 9 34 19 SSW 1019,3 9 0,0
21.10.2018 15:00:00 13,0 10,7 14 7 32 17 S 1019,7 16 0,0
21.10.2018 14:00:00 12,7 10,6 16 8 29 16 SSW 1020,7 14 0,0
21.10.2018 13:00:00 12,7 10,6 13 7 34 18 SSW 1021,2 14 0,0
21.10.2018 12:00:00 12,7 10,6 15 8 31 17 SSW 1021,8 15 0,2
21.10.2018 11:00:00 12,4 10,3 14 7 29 15 SSW 1022,2 15 0,0
21.10.2018 10:00:00 12,2 9,9 11 6 29 16 SSW 1022,5 4,7 0,0
21.10.2018 09:00:00 12,1 9,7 12 7 31 17 SSW 1022,4 15 0,0
21.10.2018 08:00:00 11,7 9,4 11 6 24 13 SSW 1022,3 20 0,0
21.10.2018 07:00:00 11,3 9,0 13 7 25 13 SSW 1022,7 4,4 0,0
21.10.2018 06:00:00 11,2 8,4 10 5 21 12 SSW 1023,2 8 0,0
21.10.2018 05:00:00 10,2 7,4 6 3 11 6 S 1023,5 21 0,0
21.10.2018 04:00:00 10,3 7,7 5 3 13 7 SSW 1024,1 17 0,0
21.10.2018 03:00:00 10,2 7,4 8 4 18 10 SSW 1024,2 18 0,0
21.10.2018 02:00:00 9,4 8,0 3 2 7 4 S 1024,4 20 0,0
21.10.2018 01:00:00 9,2 7,6 4 2 11 6 S 1024,6 28 0,0
21.10.2018 00:00:00 7,8 6,3 2 1 10 5 N 1025,0 47 0,0
20.10.2018 23:00:00 8,3 6,9 0 0 4 2 N 1024,5 42 0,0
20.10.2018 22:00:00 8,5 7,1 0 0 4 2 N 1024,8 36 0,0
20.10.2018 21:00:00 8,2 6,5 0 0 6 3 N 1025,0 49 0,0
20.10.2018 20:00:00 8,9 7,0 2 1 7 4 W 1024,8 50 0,0
20.10.2018 19:00:00 10,1 6,8 5 3 11 6 W 1024,6 50 0,0
20.10.2018 18:00:00 10,7 7,0 5 3 14 7 W 1024,4 50 0,0
20.10.2018 17:00:00 12,0 6,9 10 6 18 10 W 1024,1 50 0,0
20.10.2018 16:00:00 13,4 6,3 10 5 19 11 W 1023,9 45 0,0
20.10.2018 15:00:00 13,3 5,7 9 5 16 9 W 1023,7 45 0,0
20.10.2018 14:00:00 13,3 6,6 7 4 17 9 WNW 1023,5 40 0,0
20.10.2018 13:00:00 12,9 6,5 10 5 14 8 W 1023,2 45 0,0
20.10.2018 12:00:00 13,1 7,1 8 4 16 8 NW 1023,0 34 0,0
20.10.2018 11:00:00 12,2 7,5 9 5 20 11 WNW 1022,8 36 0,0
20.10.2018 10:00:00 11,3 9,2 5 3 15 8 W 1022,2 29 0,0
20.10.2018 09:00:00 10,6 9,0 9 5 16 9 W 1021,5 20 0,0
20.10.2018 08:00:00 10,0 8,9 7 4 16 9 SSW 1021,3 8 0,6
20.10.2018 07:00:00 10,0 8,3 9 5 20 11 SSW 1021,3 28 0,0
20.10.2018 06:00:00 10,3 7,4 12 6 22 12 SW 1021,3 43 0,0
20.10.2018 05:00:00 10,5 7,0 14 8 30 16 WSW 1021,3 33 0,0
20.10.2018 04:00:00 10,7 6,8 11 6 22 12 WSW 1021,6 44 0,0
20.10.2018 03:00:00 10,0 6,5 6 4 18 10 WSW 1021,8 40 0,0
20.10.2018 02:00:00 10,1 6,3 10 5 21 12 WSW 1022,3 35 0,0
20.10.2018 01:00:00 10,3 6,4 13 7 22 12 WSW 1022,2 39 0,0
20.10.2018 00:00:00 10,1 5,9 9 5 20 11 WSW 1022,2 42 0,0
19.10.2018 23:00:00 10,6 5,1 13 7 29 16 WSW 1022,4 36 0,0
19.10.2018 22:00:00 10,7 6,6 14 7 23 12 WSW 1022,5 34 0,0
19.10.2018 21:00:00 10,3 5,7 8 5 15 8 WSW 1022,7 50 0,0
19.10.2018 20:00:00 9,8 5,9 4 2 8 4 S 1022,5 49 0,0
19.10.2018 19:00:00 10,1 5,3 4 2 10 6 S 1022,5 44 0,0
19.10.2018 18:00:00 10,4 4,7 6 4 14 7 SSW 1022,5 50 0,0
19.10.2018 17:00:00 11,5 4,9 8 4 22 12 SW 1022,6 42 0,0
19.10.2018 16:00:00 12,0 5,2 8 4 16 9 SW 1023,1 41 0,0
19.10.2018 15:00:00 12,4 5,3 8 5 21 12 SSW 1023,5 44 0,0
19.10.2018 14:00:00 13,2 5,4 10 5 19 10 SSW 1023,9 38 0,0
19.10.2018 13:00:00 12,8 6,8 9 5 15 8 SSE 1023,8 36 0,0
19.10.2018 12:00:00 11,4 6,9 6 3 11 6 S 1024,1 38 0,0
19.10.2018 11:00:00 9,8 7,6 4 2 10 5 SE 1024,5 38 0,0
19.10.2018 10:00:00 5,8 4,0 3 2 7 4 NE 1024,5 27 0,0
19.10.2018 09:00:00 4,2 3,2 3 1 8 4 NNE 1024,2 42 0,0
19.10.2018 08:00:00 3,8 2,6 4 2 8 5 NE 1023,8 40 0,0
19.10.2018 07:00:00 4,1 3,1 3 2 7 4 NNE 1023,7 41 0,0
19.10.2018 06:00:00 3,6 2,7 4 2 7 4 NNE 1023,8 46 0,0
19.10.2018 05:00:00 3,5 2,6 3 2 8 4 NE 1024,0 49 0,0
19.10.2018 04:00:00 3,2 2,3 3 1 6 4 NE 1024,2 50 0,0
19.10.2018 03:00:00 3,5 2,6 4 2 7 4 NE 1024,1 44 0,0
19.10.2018 02:00:00 4,0 3,1 3 2 6 3 NE 1024,1 37 0,0
19.10.2018 01:00:00 4,5 3,3 0 0 6 3 N 1024,2 40 0,0
19.10.2018 00:00:00 5,1 4,1 2 1 6 3 NNE 1024,0 40 0,0
18.10.2018 23:00:00 6,1 4,6 3 1 4 2 ENE 1024,0 36 0,0
18.10.2018 22:00:00 6,9 5,1 0 0 4 2 N 1024,0 34 0,0
18.10.2018 21:00:00 7,7 5,3 0 0 3 1 N 1023,5 30 0,0
18.10.2018 20:00:00 9,0 5,0 0 0 8 5 N 1023,0 35 0,0
18.10.2018 19:00:00 10,4 5,4 6 3 13 7 WNW 1022,7 23 0,0
18.10.2018 18:00:00 11,5 5,4 10 5 22 12 WNW 1022,3 25 0,0
18.10.2018 17:00:00 12,6 5,3 14 8 25 14 WNW 1022,0 18 0,0
18.10.2018 16:00:00 13,6 5,0 13 7 23 12 W 1021,7 18 0,0
18.10.2018 15:00:00 14,3 3,7 14 8 28 15 WNW 1021,5 17 0,0
18.10.2018 14:00:00 14,0 4,0 12 7 24 13 NW 1021,5 15 0,0
18.10.2018 13:00:00 14,0 4,3 13 7 25 14 NW 1021,4 19 0,0
18.10.2018 12:00:00 13,6 5,7 13 7 31 17 NW 1021,3 26 0,0
18.10.2018 11:00:00 13,0 5,4 12 6 24 13 NNW 1021,4 28 0,0
18.10.2018 10:00:00 12,1 7,6 8 5 16 9 NW 1020,7 25 0,0
18.10.2018 09:00:00 11,0 7,7 7 4 11 6 WNW 1020,0 20 0,0
18.10.2018 08:00:00 10,8 8,6 6 4 10 5 W 1019,5 18 0,0
18.10.2018 07:00:00 11,3 9,0 5 3 9 5 W 1018,9 19 0,0

tt = Température de l'air
td = dewpoint
ff = Vitesse du vent
fx = gusts
dd = Direction du vent
ppp = reduced air pressure
vv = visibility
rr = Quantités de précipitations

stations d'obs. à proximité